Powrót do katalogu

GRUS-1B

AktywnyNaukaSSO
NORAD 47934·PAYLOAD·🇯🇵 Japan

Wystrzelony Mar 22, 2021 z Baikonur Cosmodrome

Loading…

Następne Przeloty (najbliższe 24 godziny)

TLE

ŚwieżeSource: Space-Track

Epoka: Sep 14, 2026, 15:16 UTC

1 47934U 21022C   26257.63661716  .00000692  00000-0  61857-4 0  9990
2 47934  97.5250 137.8048 0016932  23.8084 336.3919 14.98899650299298

Śledź GRUS-1B w czasie rzeczywistym z AllMySat

Download on the App Store